Location: Robert Ferguson Observatory
(38.4385°N, 122.5078°W)
Time: 08:34:42
(UTC-07:00)

Daily predictions for brighter satellites

Satellite Brightness Start Highest point End
(mag) Time Altitude Azimuth Time Altitude Azimuth Time Altitude Azimuth
Cosmos 1633 Rocket 3.2 20:20:52 10° N 20:25:14 82° W 20:29:35 10° S
Cosmos 962 Rocket 4.5 20:21:42 10° S 20:27:49 82° E 20:34:02 10° N
Cosmos 1455 2.7 20:28:44 10° SSW 20:32:33 65° W 20:36:25 10° N
USA 186 1.8 20:32:32 10° SE 20:34:36 31° ENE 20:36:46 10° N
Cosmos 1515 Rocket 3.5 20:34:43 10° S 20:39:10 79° E 20:43:39 10° N
Cosmos 2218 Rocket 4.2 20:33:32 10° SSE 20:39:40 52° E 20:45:51 10° NNE
Cosmos 1980 4.4 20:34:55 10° SW 20:40:32 62° WNW 20:46:11 10° NNE
Cosmos 2341 Rocket 4.2 20:36:43 10° S 20:43:04 80° W 20:49:24 10° N
Cosmos 2366 rocket 4.2 20:37:54 10° SSE 20:43:51 50° E 20:49:55 10° NNE
Cosmos 1371 Rocket 4.0 20:39:38 10° SSW 20:44:57 83° ESE 20:50:20 10° NNE
Envisat 3.2 20:40:13 10° S 20:45:17 77° WSW 20:50:23 10° NNW
Cosmos 1441 Rocket 4.4 20:42:40 10° SE 20:45:37 22° E 20:48:34 10° NE
SL-8 Rocket 4.0 20:43:36 10° S 20:49:52 76° E 20:56:08 10° N
Cosmos 2297 4.1 20:48:14 10° N 20:53:42 46° ENE 20:58:14 15° SE
SJ-6B 3.8 20:51:32 10° S 20:55:23 48° W 20:59:12 10° NNW
ATLAS 5 CENTAUR R/B 4.3 20:55:50 10° N 20:59:07 15° NE 21:02:34 10° ENE
Cosmos 1869 3.2 20:55:35 10° S 20:59:35 80° E 21:03:37 10° N
H-2A R/B 3.6 21:02:00 14° E 21:04:01 18° ENE 21:07:18 10° NNE
Gblst 52 Del rocket 4.2 20:59:56 10° SSW 21:05:32 57° SE 21:10:54 10° ENE
Cosmos 2056 Rocket 3.7 21:00:22 10° SSW 21:05:48 82° WNW 21:11:13 10° NNE
Cosmos 1452 Rocket 4.0 21:01:33 10° SSE 21:06:20 37° E 21:11:08 10° NE
Cosmos 2237 Rocket 3.7 21:01:18 10° SW 21:06:33 40° WNW 21:11:51 10° N
Cosmos 1140 Rocket 4.4 21:02:12 10° N 21:06:50 32° ENE 21:09:31 20° ESE
Cosmos 2344 3.7 21:00:23 10° S 21:07:41 49° ESE 21:15:18 10° NE
Cosmos 2228 Rocket 4.3 21:06:37 10° SSW 21:10:47 44° W 21:15:02 10° N
ASTRO E2 3.8 21:08:41 10° WSW 21:12:11 29° S 21:13:37 23° SSE
Cosmos 1825 2.6 21:08:30 10° NNW 21:12:14 62° W 21:15:57 10° S
Cosmos 1933 4.3 21:15:16 25° ESE 21:16:05 27° E 21:19:33 10° NNE
Cosmos 864 Rocket 4.4 21:12:41 10° S 21:18:48 89° W 21:25:00 10° N
Cosmos 2278 Rocket 3.4 21:13:48 10° NW 21:19:04 40° WSW 21:24:19 10° S
OAO 3 Rocket 3.9 21:14:54 10° SW 21:19:07 32° SSE 21:20:29 27° SE
ATLAS 2AS CENTAUR R/B 4.2 21:12:41 10° NW 21:19:31 35° WSW 21:25:49 10° S
Cosmos 1408 3.9 21:16:26 10° NNW 21:19:55 40° W 21:23:24 10° SSW
NOAA 11 4.2 21:15:32 15° SSE 21:20:09 74° ENE 21:25:39 10° N
Cosmos 405 Rocket 2.7 21:18:31 15° S 21:21:37 60° E 21:25:32 10° NNE
Cosmos 1939 Rocket 3.6 21:17:54 10° S 21:21:40 50° W 21:25:31 10° NNW
Cosmos 1190 Rocket 4.0 21:18:06 10° NNW 21:23:25 87° WSW 21:27:16 19° SSE
Cosmos 405 2.8 21:21:31 10° N 21:25:01 88° E 21:26:44 28° S
Meteor 2-10 Rocket 3.9 21:21:18 10° SSW 21:27:02 78° W 21:32:54 10° N
Spot 2 Rocket 3.5 21:23:07 14° SSE 21:27:31 83° WSW 21:32:38 10° NNW
Hubble Space Telescope 2.7 21:29:42 10° SSW 21:31:22 15° S 21:31:22 15° S
Cosmos 1954 Rocket 4.1 21:28:32 10° N 21:33:40 58° ENE 21:35:50 33° SE
Cosmos 2098 Rocket 3.7 21:30:26 10° SSW 21:34:36 47° W 21:38:00 10° N
CZ-4C R/B 1.9 21:31:22 10° SSW 21:36:22 71° ESE 21:42:05 10° NE
OAO 3 Copernicus 4.4 21:31:33 10° W 21:36:30 59° S 21:38:17 37° ESE
ARGOS 3.4 21:36:49 32° SE 21:38:59 52° ENE 21:44:11 10° N
Resurs 01 Rocket 2.9 21:37:23 10° SSW 21:41:32 39° W 21:45:43 10° NNW
Cosmos 614 Rocket 3.9 21:36:37 10° NNW 21:41:50 69° ENE 21:43:51 37° SE
Cosmos 1943 Rocket 3.8 21:39:17 10° N 21:42:57 18° NE 21:44:20 16° ENE
Cosmos 1437 Rocket 4.1 21:39:55 10° NNE 21:42:47 25° ENE 21:42:47 25° ENE
Lacrosse 5 3.2 21:44:24 10° NNW 21:48:46 28° NE 21:50:34 23° ENE
CZ-3B R/B 4.3 21:48:27 10° NW 21:49:10 23° WNW 21:49:10 23° WNW
ERS-1 Rocket 3.4 21:49:44 39° ESE 21:50:43 44° ENE 21:55:28 10° N
NOSS 3-4 (A) 4.1 21:43:43 10° NW 21:50:48 66° WSW 21:55:25 26° SSE
NOSS 3-4 (C) 4.1 21:43:49 10° NW 21:50:55 67° WSW 21:55:30 26° SSE
SPOT 5 4.0 21:51:42 25° ENE 21:51:42 25° ENE 21:55:07 10° NNE
Centaur D-1A AC-31 3.0 21:43:58 10° WSW 21:53:11 27° S 21:53:54 26° S
Cosmos 1707 Rocket 3.5 21:51:26 27° SSW 21:53:46 79° W 21:58:07 10° N
Cosmos 1000 Rocket 4.5 21:50:17 10° N 21:56:28 64° E 21:58:46 39° SSE
CSL-04 DEB 4.5 21:57:11 57° SSE 21:58:03 83° ENE 22:02:28 10° NNW
Cosmos 1862 3.9 21:54:47 10° NNW 21:58:44 55° W 22:00:00 37° SSW
SL-16 R/B 3.7 21:55:34 10° SW 22:00:45 36° WNW 22:05:57 10° N
Cosmos 2239 Rocket 4.4 21:57:38 31° SSE 22:00:45 69° E 22:07:03 10° NNE
Cosmos 1821 Rocket 3.9 21:59:32 30° S 22:02:52 74° E 22:09:09 10° N
Cosmos 1420 Rocket 4.1 21:58:42 10° SSW 22:03:59 76° WNW 22:09:20 10° NNE
Cosmos 1869 Rocket 4.3 22:01:00 10° NNW 22:05:12 48° W 22:06:54 30° SSW
Cosmos 1733 Rocket 3.5 22:07:13 10° N 22:10:51 46° NE 22:10:51 46° NE
MetOp-A 4.1 22:10:01 45° S 22:11:42 79° WSW 22:17:05 10° NNW
ATLAS 2A CENTAUR R/B 4.1 21:55:27 10° WSW 22:15:10 49° S 22:19:02 38° SE
RESURS DK-1 3.8 22:12:18 10° N 22:15:12 28° NE 22:15:12 28° NE
Intercosmos 24 4.5 22:14:33 41° S 22:16:38 86° E 22:21:07 10° N
Meteor 2-17 Rocket 4.4 22:17:39 54° ESE 22:18:22 58° E 22:24:22 10° NNE
Cosmos 2123 Rocket 4.0 22:18:28 10° N 22:24:42 61° E 22:25:25 58° ESE
Cosmos 1943 3.1 22:26:37 68° E 22:26:37 68° E 22:32:09 10° NNE
Cosmos 1603 4.0 22:22:51 11° SSW 22:28:17 66° WNW 22:33:53 10° NNE
Helios 1B rocket 3.9 22:26:18 10° NNE 22:28:23 28° NNE 22:28:23 28° NNE
Cosmos 2369 Rocket 2.2 22:28:52 10° NNW 22:34:31 62° ENE 22:34:34 62° ENE
SPOT 1/Viking Rocket 3.6 22:35:43 69° NE 22:35:43 69° NE 22:40:42 10° N
SL-08 RB Rocket 4.2 22:35:36 52° W 22:35:37 52° W 22:40:00 10° NNW
H-2A R/B 2.5 22:42:36 47° WSW 22:43:03 49° W 22:47:51 10° NNW
Terra 2.9 22:45:22 35° NNE 22:45:22 35° NNE 22:48:35 10° N
ATLAS 5 CENTAUR R/B 2.5 22:38:49 10° NNW 22:44:50 66° NE 22:45:14 64° ENE
CZ-2C R/B 4.5 22:46:11 24° NE 22:46:11 24° NE 22:48:56 10° N
Cosmos 2263 4.5 22:41:51 10° NNW 22:46:55 55° NE 22:46:55 55° NE
DMSP B5D2-2 4.2 22:45:14 10° N 22:50:29 71° WNW 22:50:39 70° W
Cosmos 1605 Rocket 3.9 22:53:16 81° S 22:53:39 89° E 23:00:05 10° N
Cosmos 921 Rocket 4.4 22:57:13 36° WNW 22:57:13 36° WNW 23:01:03 10° N
Cosmos 1943 Rocket 2.9 23:21:41 10° NNW 23:25:52 49° NW 23:25:52 49° NW
Lacrosse 5 3.4 23:27:02 10° NW 23:29:46 31° WNW 23:29:46 31° WNW
USA 267 3.5 23:32:34 10° NE 23:37:42 58° NE 23:37:42 58° NE
